Regional Weather Roundup
Issued by NWS

Home | Current Version | Previous Version | Text Only | Print | Product List | Glossary On
Versions: 1 2 3 4 5 6 7 8 9 10 11 12 13 14 15 16 17 18 19 20 21 22 23 24 25 26 27 28 29 30 31 32 33 34 35 36 37 38 39 40 41 42 43 44 45 46 47 48 49
000
ASUS42 KKEY 022110
RWRKEY

FLORIDA REGIONAL WEATHER ROUNDUP FOR THE FLORIDA KEYS
NATIONAL WEATHER SERVICE KEY WEST FLORIDA
400 PM EST MON MAR 02 2015

...SOUTH FLORIDA AND THE KEYS...

CITY           SKY/WX    TMP DP  RH WIND       PRES   REMARKS
FORT MYERS     CLOUDY    83  62  49 NE9       30.15F
SW REGIONAL AP PTSUNNY   84  59  42 E13       30.16F
NAPLES         SUNNY     79  68  69 W10       30.16F
MIAMI          MOSUNNY   80  61  52 E13       30.18S
WEST KENDALL   SUNNY     80  61  52 E12       30.17F
HOMESTEAD      SUNNY     79  66  64 NE12      30.17S
MARATHON       MOSUNNY   79  69  71 E10       30.16S
BOCA CHICA NAS MOSUNNY   79  68  69 E15       30.16S
KEY WEST INTL  SUNNY     79  70  74 E12       30.16F

...INTERNATIONAL WEATHER...

CITY           SKY/WX    TMP DP  RH WIND       PRES   REMARKS
NASSAU BAHAMAS MOSUNNY   79  70  73 NE8       30.17F
CANCUN MEXICO  PTSUNNY   81  73  78 NE8       30.09F
COZUMEL MEXICO PTSUNNY   79  70  73 E12       30.08F

ADJACENT COASTAL WATERS...

STATION/POSITION TIME  SKY/WX   TEMP    WIND        PRES    WAVE
                                AIR SEA DIR/SP/G            HT/PER
                 (UTC)          (F)     (DEG/KT/KT) (MB)    (FT/S)
PULASKI SHOAL LI 2000            72      70/ 10/ 11 1021.4F
SAND KEY         2050            75      90/ 13/ 14 1021.0F
SOMBRERO KEY     2100            76      80/ 12/ 13 1021.7F
LONG KEY         2000            76 79   80/ 12/ 14 1022.2F
MOLASSES REEF    2100            75 78   80/ 12/ 12 1021.2F
FOWEY ROCKS      NOT AVBL
Buoy 42080       NOT AVBL

$$


USA.gov is the U.S. government's official web portal to all federal, state and local government web resources and services.